www.pogodaiklimat.ru

Погода и климат >> Архив погоды >> Филиппины >> Манила


АРХИВ ПОГОДЫ в Маниле

Время (UTC), дата Ветер
(напр.,м/с)
 
Видим.   Явления Облачность Т
(С)
Тd
(С)
f
(%)
Тe
(С)
Тes
(С)
Комфортность P
(гПа)
Po
(гПа)
Тmin
(С)
Tmax
(С)
R
(мм)
R24
(мм)
S
(см)
03 16.09 Ю 5 10 км в посл. час дождь 10/3 600 м
[Sc As trans]
+27.4 +24.8 86 +39 +42 очень
душно
1006.9 1005.2 2
06 16.09 Ю 6 10 км слаб. дождь {туман} 10/5 600 м
[Sc As trans]
+26.2 +24.9 93 +37 +39 очень
душно
1005.3 1003.6 3
09 16.09 Ю 3
{9}
9000 м слаб. дождь 10/5 540 м
[Sc As trans]
+25.6 +25.0 96 +36 +37 очень
душно
1004.7 1003.0 6
12 16.09 В 3 8000 м слаб. дождь 10/5 540 м
[Sc As trans]
+25.9 +25.1 95 +37 +37 очень
душно
1005.8 1004.1 +27.8 17
15 16.09 Ю 1 9000 м в посл. час дождь {туман} 10/4 600 м
[Sc As trans]
+26.4 +25.1 93 +38 +38 очень
душно
1006.1 1004.4 0.3
18 16.09 Ю 3 8000 м слаб. дождь {туман} 10/5 600 м
[Sc As trans]
+25.6 +25.0 96 +36 +36 очень
душно
1005.5 1003.8 8
21 16.09 С 3
{11}
8000 м слаб. дождь 10/5 600 м
[Sc As trans]
+25.4 +24.8 96 +36 +36 очень
душно
1005.8 1004.1 4
00 17.09 Ю 2 9000 м в посл. час дождь 10/5 600 м
[Sc As trans]
+25.5 +24.6 95 +36 +37 очень
душно
1006.9 1005.2 +24.0 41
03 17.09 Ю 5 10 км мгла {туман} 5/3 600 м
[Cu med, cong Ac As Ci fib]
+28.8 +24.2 76 +40 +46 очень
душно
1006.7 1005.0
06 17.09 Ю 5 10 км мгла {туман} 9/3 600 м
[Sc Ac As]
+28.5 +24.3 78 +40 +42 очень
душно
1005.3 1003.6
09 17.09 ЮВ 5 10 км мгла {туман} 9/3 600 м
[Sc As trans]
+28.3 +23.5 75 +38 +39 очень
душно
1005.4 1003.7
12 17.09 Ю 4 8000 м в посл. час ливневой дождь {туман} 10/6 540 м
[Sc As op]
+25.9 +23.9 89 +36 +36 очень
душно
1006.7 1005.0 +29.3 6
15 17.09 Ю 4 8000 м в посл. час ливневой дождь 10/6 540 м
[Sc As op]
+26.2 +23.5 85 +36 +36 очень
душно
1007.7 1006.0 2
18 17.09 Ю 3 8000 м в посл. час ливневой дождь 10/8 540 м
[Sc As op]
+26.4 +23.3 83 +36 +36 очень
душно
1006.2 1004.5 4
21 17.09 ЮЗ 5 8000 м в посл. час ливневой дождь {туман} 10/8 540 м
[Sc As op]
+26.1 +23.7 87 +36 +36 очень
душно
1006.3 1004.6 0.2
00 18.09 ЮВ 3 10 км мгла {туман} 6/3 600 м
[Cu med, cong Ac As]
+27.4 +23.8 81 +38 +40 очень
душно
1008.3 1006.6 +24.9 9
03 18.09 Ю 3 11 км в посл. час ливневой дождь {туман} 10/5 600 м
[Sc diur, vesp Ac As]
+27.6 +24.7 84 +39 +42 очень
душно
1008.2 1006.5 0.1
06 18.09 ЮЗ 5 8000 м слаб. ливневой дождь {туман} 10/5 600 м
[Sc Ac As]
+27.7 +24.9 85 +40 +41 очень
душно
1006.2 1004.5 0.6
09 18.09 Ю 5 9000 м слаб. дождь 10/5 600 м
[Sc As op]
+26.2 +24.0 88 +36 +36 очень
душно
1007.1 1005.4 7
12 18.09 ЮЗ 6 9000 м в посл. час дождь {ливн. осадки} 10/5 600 м
[Sc diur, vesp Ac As]
+26.1 +24.2 89 +36 +36 очень
душно
1008.9 1007.2 +29.1 10
15 18.09 ЮЗ 5 9000 м в посл. час дождь {туман} 10/5 600 м
[Sc Ac As]
+27.2 +24.1 83 +38 +38 очень
душно
1008.9 1007.2 3
18 18.09 ЮЗ 5 9000 м мгла {дождь, туман} 10/5 600 м
[Sc diur, vesp Ac As]
+27.2 +24.0 83 +38 +38 очень
душно
1007.8 1006.1 3
21 18.09 ЮЗ 4 9000 м мгла {туман} 10/5 600 м
[Sc diur, vesp Ac As]
+27.0 +24.3 85 +38 +38 очень
душно
1008.2 1006.5
00 19.09 З 4 10 км в посл. час дождь {туман} 9/5 600 м
[Sc diur, vesp Ac As]
+27.0 +24.5 86 +38 +39 очень
душно
1009.9 1008.2 +24.5 14
03 19.09 З 2 10 км мгла {дождь, туман} 9/4 600 м
[Cu med, cong Ac trans Ci fib]
+29.4 +24.8 76 +42 +49 опасность
перегрева
1009.2 1007.5 0.1
06 19.09 ЮЗ 5
{15}
10 км слаб. дождь {туман} 10/4 600 м
[Sc As trans]
+26.4 +25.1 93 +38 +40 очень
душно
1007.4 1005.7 2
09 19.09 Ю 5 10 км мгла {дождь, туман} 10/4 600 м
[Sc As trans]
+27.5 +25.5 89 +40 +41 очень
душно
1007.7 1006.0 0.1
12 19.09 ЮЗ 3
{8}
8000 м слаб. дождь {туман} 10/4 600 м
[Sc As trans]
+25.2 +24.1 94 +35 +35 очень
душно
1009.3 1007.6 +29.4 4
15 19.09 З 2 8000 м слаб. дождь 10/4 600 м
[Sc As trans]
+25.4 +24.1 93 +35 +35 очень
душно
1009.2 1007.5 11
18 19.09 ЮЗ 1 8000 м слаб. дождь 10/4 600 м
[Sc As trans]
+25.5 +24.2 93 +35 +35 очень
душно
1007.5 1005.8 12
21 19.09 З 1 9000 м в посл. час дождь {туман} 10/4 600 м
[Sc As trans]
+25.4 +24.3 94 +35 +35 очень
душно
1007.6 1005.9 0.0
00 20.09 Ю 5 11 км мгла {дождь, туман} 8/4 600 м
[Sc diur, vesp Ac trans Ci fib]
+27.9 +24.0 79 +39 +40 очень
душно
1008.2 1006.5 +25.0 18
03 20.09 З 2 11 км мгла {туман} 8/4 600 м
[Sc diur, vesp Ac trans Ci fib]
+30.4 +23.6 67 +41 +49 опасность
перегрева
1007.5 1005.8
06 20.09 Ю 7 10 км слаб. дождь {туман} 10/4 600 м
[Sc As trans]
+26.8 +24.7 88 +38 +39 очень
душно
1005.3 1004.6 0.0
09 20.09 ЮЗ 7 11 км осадки на расстоянии {туман} 8/4 600 м
[Sc diur, vesp Ac As]
+27.5 +23.8 80 +38 +38 очень
душно
1005.8 1004.1
12 20.09 Ю 4 8000 м слаб. дождь {туман} 10/5 600 м
[Sc As trans]
+26.0 +24.4 91 +36 +36 очень
душно
1006.9 1005.2 +30.5 1
15 20.09 Ю 4 8000 м слаб. дождь 10/4 600 м
[Sc As trans]
+25.1 +24.2 95 +35 +35 очень
душно
1007.7 1006.0 31
18 20.09 З 2 8000 м слаб. дождь 10/4 600 м
[Sc As trans]
+25.2 +24.4 95 +35 +35 очень
душно
1006.9 1005.2 31
21 20.09 З 2 8000 м слаб. дождь {туман} 10/4 600 м
[Sc As trans]
+26.0 +24.3 90 +36 +36 очень
душно
1006.2 1004.5 1
00 21.09 Ю 5 11 км мгла {дождь, туман} 10/5 600 м
[Sc diur, vesp Ac As]
+26.0 +24.3 90 +36 +37 очень
душно
1008.1 1006.4 +24.1 34
03 21.09 Ю 3 10 км мгла {туман} 9/1 600 м
[Cu hum As trans]
+27.2 +23.7 81 +37 +44 очень
душно
1008.2 1006.5
06 21.09 Ю 5 10 км мгла {туман} 9/1 600 м
[Cu hum Ac As]
+29.5 +23.8 71 +40 +43 очень
душно
1007.2 1005.5
09 21.09 ЮЗ 6 10 км мгла {туман} 9/3 600 м
[Cu med, cong Ac As Ci]
+28.5 +24.0 77 +40 +40 очень
душно
1007.8 1006.1
12 21.09 ЮЗ 4 10 км мгла {туман} 9/1 600 м
[Sc Cs]
+27.8 +23.4 77 +38 +38 очень
душно
1009.8 1008.1 +30.4
15 21.09 З 4 10 км мгла {туман} 9/1 600 м
[Cu hum Ac As]
+27.4 +24.1 82 +38 +38 очень
душно
1010.5 1008.8
18 21.09 Ю 1 10 км мгла {туман} 9/1 600 м
[Cu hum Cs]
+27.1 +23.6 81 +37 +37 очень
душно
1009.7 1008.0
21 21.09 ЮВ 2 10 км мгла {туман} 9/5 600 м
[Sc Cs]
+25.8 +23.5 87 +35 +35 очень
душно
1010.2 1008.5
00 22.09 Ю 1 10 км мгла {туман} 9/1 600 м
[Cu med, cong Ac As Cs]
+27.9 +23.9 79 +39 +42 очень
душно
1011.8 1010.1 +25.0
03 22.09 Ю 3 10 км мгла {туман} 8/1 600 м
[Cu hum Ac As Cs]
+29.9 +22.9 66 +40 +48 очень
душно
1011.7 1010.0
06 22.09 ЮЗ 4 10 км мгла {туман} 6/1 600 м
[Cu med, cong Ac trans Ci fib]
+30.8 +23.4 65 +42 +48 опасность
перегрева
1010.1 1008.4
09 22.09 ЮЗ 4 10 км мгла {туман} 6/1 600 м
[Cu med, cong Ac trans Ci fib]
+29.6 +25.0 76 +42 +43 опасность
перегрева
1010.7 1009.0
12 22.09 Ю 3 10 км мгла {туман} 6/1 600 м
[Cu hum Ac As]
+28.6 +24.9 80 +41 +41 опасность
перегрева
1012.5 1010.8 +31.4
15 22.09 ЮЗ 2 10 км мгла {туман} 6/6 600 м
[Sc]
+28.2 +25.7 86 +42 +42 опасность
перегрева
1013.6 1011.9
18 22.09 Ю 1 10 км мгла {туман} 8/4 600 м
[Sc Ac As]
+27.3 +25.0 87 +39 +39 очень
душно
1011.8 1010.1
21 22.09 В 2 10 км мгла {туман} 8/1 600 м
[Sc Ac As]
+26.3 +24.0 87 +36 +36 очень
душно
1011.5 1009.8

 

Местоположение метеостанции Манила (Филиппины): широта 14.58 долгота 120.98 высота над уровнем моря 13 м.

В архиве по умолчанию представлена погода в Маниле за последнюю неделю. Архивные данные за месяц целиком и за предыдущие месяцы, начиная с января 2011 года, Вы можете получить, выбрав интересующий диапазон дат из раскрывающегося списка и нажав кнопку "Ввод!".


*Определитесь, кто Вы:
робот инопланетянин человек

Внимание! Время в таблицах - всемирное. Для получения местного времени необходимо прибавить поправку, которая равна 8 ч.

Смотрите также архив погоды в соседних городах и на ближайших метеорологических станциях:

Погода в Научном саду (Филиппины) (6 км)
Погода в Аэропорту Ninoy Aquino (Филиппины) (7 км)
Погода в Сангли Пойнт (Филиппины) (12 км)
Погода в Танае (Филиппины) (41 км)
Погода на Амбулонге (Филиппины) (56 км)
Погода в Инфанте (Филиппины) (75 км)
Погода на Базе ВВС Clark (Филиппины) (80 км)
Погода в Куби Пойнт (Филиппины) (81 км)
Погода в Тайябасе (Филиппины) (89 км)
Погода в Кабанатуане (Филиппины) (100 км)

Пояснения к столбцам:

Ветер - указаны скорость ветра в м/с - средняя за 10 мин, порывы в срок и между сроками (в фигурных скобках) и направление, откуда дует ветер: С - северный, СВ - северо-восточный, В - восточный, ЮВ - юго-восточный, Ю - южный, ЮЗ - юго-западный, З - западный, СЗ - северо-западный.
Видимость - горизонтальная дальность видимости в метрах или километрах. При видимости от 1 до 10 км при отсутствии осадков обычно наблюдается дымка, при ухудшении видимости до 1 км и менее - туман. В сухую погоду видимость может ухудшаться дымом, пылью или мглою.
Явления - указаны атмосферные явления, наблюдавшиеся в срок или в последний час перед сроком; фигурными скобками обозначены явления, наблюдавшиеся между сроками (за 1-3 часа до срока); квадратными скобками обозначены град или гололедные отложения с указанием их диаметра в мм.
Облачность - указаны через наклонную черту общая и нижняя облачность в баллах и высота нижней границы облаков в метрах; квадратными скобками обозначены формы облаков: Ci - перистые, Cs - перисто-слоистые, Cc - перисто-кучевые, Ac - высококучевые, As - высокослоистые, Sc - слоисто-кучевые, Ns - слоисто-дождевые, Cu - кучевые, Cb - кучево-дождевые. Подробнее классификацию облаков см. в Атласе облаков (PDF).
T - Температура воздуха - температура, измеренная на высоте 2 м над землей.
Td - Температура точки росы - температура, при понижении до которой содержащийся в воздухе водяной пар достигнет насыщения.
f - Относительная влажность воздуха - влажноcть воздуха, измеренная на высоте 2 м над землей.
Te - Эффективная температура - температура, которую ощущает одетый по сезону человек в тени. Характеристика душности погоды. При расчете учитывается влияние влажности воздуха и скорости ветра на теплоощущения человека.
Tes - Эффективная температура на солнце - температура, которую ощущает человек, с поправкой на солнечный нагрев. Характеристика знойности погоды. Зависит от высоты солнца над горизонтом, облачности и скорости ветра. Ночью, в пасмурную погоду, а также при ветре 12 м/с и более поправка равна нулю.
P - Атмосферное давление - приведенное к уровню моря атмосферное давление.
Po - Атмосферное давление - измеренное на уровне метеостанции атмосферное давление.
Tmin - Минимальная температура - минимум температуры воздуха на высоте 2 м над землей.
Tmax - Максимальная температура - максимум температуры воздуха на высоте 2 м над землей.
R - Количество осадков - Количество выпавших осадков за период времени, мм. При наведении курсора мыши на число - период времени, за который выпало указанное количество осадков.
R24 - Количество осадков - Количество выпавших осадков за 24 часа, мм.
S - Снежный покров - Высота снежного покрова, см. При наведении курсора мыши на число - состояние снежного покрова и степень покрытия местности в баллах.